User: anonymous   Login
Location: Unspecified
(0.0000°N, 0.0000°E)
Time: 00:34:10
(UTC+00:00)
Language:

CUTE 1.7 & AOD 2 - Orbit

View from above orbital plane
View from above orbital plane
View from above satellite
View from above satellite

Ground track
Ground track

The orbit data is extracted from the following two-line orbital elements,

1 32785U 08021C   14297.43795049  .00002596  00000-0  30444-3 0   980
2 32785 097.6833 344.4046 0015093 121.6985 353.1199 14.85723792351219
Epoch (UTC): 24 October 2014 10:30:38
Eccentricity: 0.0015093
inclination: 97.6833°
perigee height: 601 km
apogee height: 622 km
right ascension of ascending node: 344.4046°
argument of perigee: 121.6985°
revolutions per day: 14.85723792
mean anomaly at epoch: 353.1199°
orbit number at epoch: 35121

The dashed part of the orbit path shows where the satellite is in the earth's shadow,  

DLR